Погода в Мозыре

Погода в Мозыре : погода сейчас, прогноз погоды и архив. Всё, что Вы хотите узнать о погоде в Мозыре!

Хотите узнать прогноз погоды в Мозыре? Тогда Вам сюда: Погода в Мозыре

Поиск расширенной информации на нашем сайте:

Другие новости

Новости СМИ2

Главная страница сайта

Новости сайта

02.10.2013

Напоминаем, что на нашем новом сайте вы можете получить высокодетализированные прогнозы погоды по пунктам России, СНГ и мира (включающие важные для авиации метеовеличины, такие как направление и скорость ветра, видимость, явления погоды, количество и форма облачности, нижняя и верхняя граница облачности), а также ознакомиться с разнообразными материалами по авиационной метеорологии и подборкой полезных ссылок на эту тему.

Сайт Метеоцентр.Азия посвящён разработке технологий оптимизации авиаметеорологического обслуживания, включая проектирование и перспективное создание нескольких автоматизированных авиаметеорологических систем:
- система выпуска высокодетальных прогностических карт явлений погоды для нижнего воздушного пространства по России и ближнему зарубежью;
- система верификации прогнозов TAF (выпускаемых синоптиками официальных АМСГ РФ и ближнего зарубежья) и AUTOTAF (выпускаемых сайтом Метеоцентр.Азия) - выявление ошибок, онлайн-сопоставление с фактической погодой METAR, автоматическое внесение коррективов в прогнозы при резком отклонении фактической погоды от прогноза, подсчёт оправдываемости прогнозов по элементам и в целом;
- система обработки, анализа и отображения авиаметеорологической информации для применения провайдерами метеорологической информации.


Погода в Мозыре - сегодня

Время (UTC), дата Ветер
(°,м/с) 
Видим.   Явления Облачность Т
(°С)
Тd
(°С)
f(%) Тe
(°С)
Pmin
(гПа)
dP
(гПа)
Po
(мм)
O2
(г/м3)
Тmin Tmax R s Состояние
почвы
18 25.05.17 тихо ()   4000 м  дымка{ливн. осадки}  10/3 1000 м средняя 
[Sc diur, vesp|Ac As]
+14.1 +13.7 97 +21  1013.9  744  282    +16.4  33     
21 25.05.17 190 (Ю) 1300 м  дымка  10/8 100 м средняя 
[Frnb|Ac As]
+13.7 +13.3 97 +21  1014.1  0.2  744  283           
00 26.05.17 тихо ()   1100 м  в посл. час туман  10/10 180 м 
[St]
+12.9 +12.5 97 +18  1013.7  -0.4  744  284           
03 26.05.17 240 (ЮЗ) 3100 м  дымка  6/0 средняя 
[Ac und]
+12.3 +11.9 97 +18  1013.7  -0.1  743  284           
06 26.05.17 290 (З) 12000 м    8/0 средняя, верхняя 
[Ac trans|Cs]
+15.9 +10.3 69 +19  1013.5  0.1  744  281  +12.2         
09 26.05.17 200 (Ю) 20000 м    9/3 1000 м средняя 
[Cu med, cong|Ac As]
+17.6 +8.9 57 +18  1014.1  0.7  744  280           
12 26.05.17 240 (ЮЗ) 20000 м  гроза без осадков  8/5 600 м кучево-дожд., средняя, верхняя 
[Cb calv|Ac und|Ci fib]
+18.7 +10.3 58 +22  1013.8  -0.3  744  279           
15 26.05.17 тихо ()   20000 м  {гроза, ливн. осадки}  4/3 600 м средняя, верхняя 
[Cu med, cong|Ac trans|Ci]
+19.4 +7.4 46 +19  1012.5  -1.2  743  278      0.0     
21 26.05.17 240 (ЮЗ) 10 км    8/0 средняя 
[Ac und]
+12 +10 88 +14  1014.8  0.7  744  285           
00 27.05.17 320 (СЗ) 10 км    10/0 средняя 
[Ac As]
+12.4 +9.7 84 +13  1015.3  0.5  745  285           
09 27.05.17 340 (С) 20000 м    6/6 600 м 
[Cu med, cong]
+18.3 +7.4 49 +19  1018.3  747  281           
12 27.05.17 300 (СЗ) 20000 м    8/4 1000 м средняя 
[Cu med, cong|Ac trans]
+18 +6.5 47 +19  1018.7  0.4  747  281           
15 27.05.17 290 (З) 20000 м    5/3 600 м средняя 
[Cu med, cong|Ac trans]
+20 +5.6 39 +20  1018.4  -0.2  747  280           
18 27.05.17 280 (З) 17000 м    8/0 средняя, верхняя 
[Ac trans|Ci fib]
+17.5 +7.1 50 +19  1019.4  0.9  748  282    +20.4       
21 27.05.17 240 (ЮЗ) 10 км    ясно 
+12.4 +7.3 71 +14  1021  1.1  749  287           
00 28.05.17 тихо ()   10 км    ясно 
+10.8 +6.5 75 +11  1021.6  0.4  749  289           
09 28.05.17 210 (ЮЗ) 20000 м    6/1 1000 м верхняя 
[Cu hum|Cc]
+20.5 +9.7 50 +21  1020.8  -0.6  749  279           
15 28.05.17 240 (ЮЗ) 20000 м    6/5 1000 м верхняя 
[Cu hum|Ci fib]
+23.2 +10 43 +24  1019  -1  748  276           
18 28.05.17 220 (ЮЗ) 16000 м    8/0 верхняя 
[Ci fib]
+20.2 +11.8 58 +24  1019.1  -0.1  748  278    +24.4       
21 28.05.17 тихо ()   10 км    ясно 
+15.7 +11 74 +18  1019.7  0.2  748  283           
00 29.05.17 тихо ()   10 км    ясно 
+13.4 +10.5 83 +15  1018.8  -1  747  285           
09 29.05.17 210 (ЮЗ) 20000 м    6/6 1200 м 
[Cu med, cong]
+23 +11.2 47 +26  1013.9  -1.8  744  275           
12 29.05.17 230 (ЮЗ) 5{10}  20000 м    5/4 1000 м верхняя 
[Cu med, cong|Ci fib]
+25.8 +9.2 35 +26  1011.6  -2.1  743  272           
15 29.05.17 220 (ЮЗ) 20000 м    5/0 средняя 
[Ac cast]
+25.4 +8.4 34 +25  1009.3  -2.3  741  272           
18 29.05.17 240 (ЮЗ) 20000 м    8/0 средняя 
[Ac und]
+22.7 +11.7 50 +26  1008.5  -0.9  740  273    +27.2       
Время (UTC), дата Ветер
(°,м/с) 
Видим.   Явления Облачность Т
(°С)
Тd
(°С)
f(%) Тe
(°С)
Pmin
(гПа)
dP
(гПа)
Po
(мм)
O2
(г/м3)
Тmin Tmax R s Состояние
почвы

Для получения пояснительной информации подведите курсор к названию столбца.

ПОГОДА в Мозыре - архив

Всё, что Вы хотите узнать о погоде в Мозыре - удобно и подробно!

Выберите нужную дату (начиная с 1 января 2015* года) и нажмите кнопку "Найти".
Будут отображены архивные сводки погоды по пункту Мозырь, начиная с указанной даты.


Отображать данные в формате CSV (для использования в таблицах Excel)


Внимание! Наш архив погоды предназначен исключительно для личного некоммерческого использования в познавательных целях. Если Вам необходимы официальные справки о состоянии погоды (для производственных, юридических, коммерческих и т.п. целей), обращайтесь в органы Росгидромета.

*Примечание: данная дата относится к архиву по метеостанциям СССР (Россия, СНГ, Балтия).
Архив по метеостанциям Зарубежной Европы и Азии (кроме Китая) хранится 10 дней, по другим регионам земного шара (Китай, Африка, Америка, Австралия, Океания) - 1 день.

Мозырь - район местоположения метеостанции


Название, широта, долгота, высота метеостанции:
Мозырь 51.9°ш. 29.2°д. 170 м над ур. моря [Беларусь]

Дополнительная информация

В oтличие oт бoльшинства пoгoдных сайтoв мы публикуем пoдрoбную метеoинфoрмацию в детальнoм прoфессиoнальнoм фoрмате.

Характеристики температуры и влажнoсти вoздуха измеряются на высoте 2 м в тени вдали oт зданий и деревьев.
Скoрoсть ветра измеряется на высoте 10 м (на урoвне рoста челoвека скoрoсть ветра ниже в 1.5-2 раза). Если метеoстанция нахoдится в гoрoде или в лесу, тo скoрoсть ветра занижена на 2-4 м/с пo сравнению с oткрытым местoм. Скoрoсть ветра над акватoриями крупных рек и oзёр, а также на вершинах хoлмoв на 2-5 м/с выше, чем в oбычных услoвиях.
Атмoсфернoе давление в разных тoчках местнoсти мoжет значительнo oтличаться oт давления на метеoстанции, в зависимoсти oт услoвий рельефа (при пoдъёме на 10 м давление пoнижается примернo на 1 мм рт.ст.).